Date,TemperatureHighF,TemperatureAvgF,TemperatureLowF,DewpointHighF,DewpointAvgF,DewpointLowF,HumidityHigh,HumidityAvg,HumidityLow,PressureMaxIn,PressureMinIn,WindSpeedMaxMPH,WindSpeedAvgMPH,GustSpeedMaxMPH,PrecipitationSumIn
2013-2-1,63.0,28.6,17.0,34.0,18.1,9.0,92,72,17,0.00,40.00,12,7,17,0.00
2013-2-2,43.0,28.2,18.0,30.0,20.1,12.0,90,74,38,0.00,40.00,10,4,14,0.00
2013-2-3,55.0,33.7,23.0,32.0,23.4,12.0,94,72,23,0.00,40.00,8,5,14,0.00
2013-2-4,61.0,30.2,18.0,30.0,17.6,1.0,91,68,11,0.00,40.00,13,7,17,0.00
2013-2-5,56.0,36.3,24.0,29.0,18.7,7.0,79,53,19,0.00,40.00,10,6,16,0.00
2013-2-6,44.0,33.9,21.0,27.0,20.0,13.0,90,59,30,0.00,40.00,12,6,19,0.00
2013-2-7,45.0,30.4,17.0,25.0,17.0,7.0,90,61,33,0.00,40.00,19,11,31,0.00
2013-2-8,37.0,30.4,24.0,31.0,26.1,19.0,99,84,58,0.00,40.00,12,5,24,0.10
2013-2-9,29.0,23.9,18.0,26.0,21.2,13.0,98,89,71,0.00,40.00,12,6,17,0.02
2013-2-10,29.0,20.1,7.0,24.0,17.1,4.0,98,88,70,0.00,40.00,21,8,28,0.01
2013-2-11,29.0,7.6,-8.0,18.0,-0.1,-11.0,87,74,38,0.00,40.00,8,3,10,0.01
2013-2-12,42.0,13.7,-2.0,29.0,5.6,-6.0,93,73,29,0.00,40.00,11,6,14,0.01
2013-2-13,51.0,22.8,7.0,34.0,15.0,3.0,95,77,25,0.00,40.00,10,5,15,0.01
2013-2-14,40.0,25.2,13.0,27.0,18.6,9.0,96,78,51,0.00,40.00,13,7,17,0.00
2013-2-15,50.0,25.1,11.0,29.0,18.0,7.0,96,78,31,0.00,40.00,9,5,15,0.00
2013-2-16,67.0,32.9,15.0,24.0,14.7,2.0,91,56,9,0.00,40.00,13,7,18,0.00
2013-2-17,45.0,31.8,17.0,23.0,17.3,-1.0,90,58,28,0.00,40.00,16,7,26,0.00
2013-2-18,52.0,26.3,9.0,24.0,10.6,-10.0,90,59,10,0.00,40.00,13,7,24,0.00
2013-2-19,42.0,34.7,30.0,29.0,19.6,14.0,86,55,38,0.00,40.00,18,12,28,0.00
2013-2-20,33.0,29.0,20.0,28.0,23.9,13.0,97,81,62,0.00,40.00,16,10,27,0.00
2013-2-21,33.0,22.5,10.0,17.0,9.8,1.0,90,61,27,0.00,40.00,14,6,21,0.00
2013-2-22,39.0,24.9,12.0,24.0,14.7,3.0,88,68,34,0.00,40.00,10,6,17,0.00
2013-2-23,32.0,26.7,21.0,27.0,14.8,8.0,86,62,40,0.00,40.00,21,12,40,0.00
2013-2-24,32.0,23.7,14.0,19.0,12.8,6.0,91,65,34,0.00,40.00,18,10,27,0.00
2013-2-25,50.0,24.1,7.0,26.0,9.3,0.0,86,61,15,0.00,40.00,20,8,34,0.00
2013-2-26,33.0,24.5,17.0,17.0,12.4,4.0,91,63,30,0.00,40.00,13,6,21,0.00
2013-2-27,39.0,22.6,6.0,22.0,9.2,-4.0,88,62,16,0.00,40.00,13,5,17,0.00
2013-2-28,58.0,30.1,17.0,31.0,15.7,7.0,86,61,17,0.00,40.00,12,7,19,0.00